Regional Weather Roundup
Issued by NWS Grand Forks, ND

Home | Current Version | Previous Version | Text Only | Print | Product List | Glossary Off
Versions: 1 2 3 4 5 6 7 8 9 10 11 12 13 14 15 16 17 18 19 20 21 22 23 24 25 26 27 28 29 30 31 32 33 34 35 36 37 38 39 40 41 42 43 44 45 46 47 48 49 50

000
ASUS43 KFGF 091410
RWRFGF
PRAIRIE TO PINES  WEATHER ROUNDUP
NATIONAL WEATHER SERVICE EASTERN NORTH DAKOTA/GRAND FORKS ND
800 AM CST FRI DEC 09 2016

 **SATELLITE DATA USED TO AUGMENT SKY COVER AT AUTOMATED STATIONS**
 *****  WEATHER ACROSS EASTERN NORTH DAKOTA  *****

CITY           SKY/WX    TMP DP  RH WIND       PRES   REMARKS
GRAND FORKS    CLOUDY     2  -4  76 W7        30.57S WCI -11
GRAND FRKS AFB CLOUDY    -1  -7  75 NW7       30.56F WCI -14
DEVILS LAKE    CLEAR    -10 -14  82 NW8       30.53F WCI -26
FARGO          CLOUDY     8   1  73 NW8       30.57S WCI  -4
WAHPETON ARPT  CLOUDY     3  -4  72 W7        30.58S WCI  -9
$$

 ***** WEATHER ACROSS CENTRAL AND WESTERN NORTH DAKOTA  *****

CITY           SKY/WX    TMP DP  RH WIND       PRES   REMARKS
BISMARCK       CLOUDY   -12 -16  82 W6        30.57R FOG     WCI -26
MINOT          CLOUDY   -12 -16  82 W6        30.54R WCI -26
JAMESTOWN      CLEAR    -10 -14  82 N7        30.53R WCI -25
MINOT AFB      CLOUDY   -15 -21  77 NW10      30.54R WCI -35
GARRISON         N/A    -14 -18  82 NW9       30.53R WCI -33
WILLISTON      CLOUDY   -14 -18  82 CALM      30.57R
DICKINSON      ICE FOG  -21 -25  81 S5        30.44S VSB 1/2 WCI -34
HETTINGER      CLOUDY   -14 -17  87 CALM      30.44R
$$

 *****  OTHER AIRPORT OBSERVATIONS IN OUR AREA  *****

CITY           SKY/WX    TMP DP  RH WIND       PRES   REMARKS
WALHALLA         N/A     -2  -2 100 W6        30.58R WCI -14
GRAFTON AIRPOR CLOUDY     5   0  78 N8        30.59S WCI  -8
VALLEY CITY AR FAIR      -8 N/A N/A NW7       30.55S WCI -22
CANDO          PTSUNNY  -13 -17  84 NW6       30.55F WCI -27
CAVALIER APRT    N/A      3   0  85 NW6       30.57S WCI  -8
GWINNER        PTSUNNY    0  -6  78 W7        30.56S WCI -13
SHEYENNE NWR     N/A      0  -6  74 NW3       29.95S
ROLLA          FAIR     -15 -20  76 W5        30.49S WCI -27
 ***** THE ABOVE OBSERVATIONS ARE NON NWS ARE NOT QUALITY
       CONTROLLED AND MAY MIS-REPORT RAIN FOR SNOW...
$$

  *****  WEATHER ACROSS NORTHERN MINNESOTA  *****

CITY           SKY/WX    TMP DP  RH WIND       PRES   REMARKS
FLAG ISLAND    CLOUDY     1  -2  85 W13       30.49S WCI -16
WARROAD        CLOUDY     1  -2  85 NW9       30.52S WCI -14
ROSEAU         CLOUDY     3  -2  78 NW6       30.53S WCI  -8
HALLOCK        CLOUDY     3  -2  78 N8        30.56S WCI -10
THF RVR FALLS  FLURRIES   6   2  83 NW8       30.53S WCI  -7
BAUDETTE       CLOUDY     4  -5  66 NW16      30.49R WCI -15
WASKISH        CLOUDY     5   0  78 NW7       30.50S WCI  -7
CROOKSTON      CLOUDY     7   1  78 NW9       30.57S WCI  -7
$$
  *****  WEATHER ACROSS CENTRAL AND WEST MINNESOTA  *****

CITY           SKY/WX    TMP DP  RH WIND       PRES   REMARKS
FOSSTON        LGT SNOW   3   0  85 CALM      30.51S
BEMIDJI        CLOUDY     4   0  83 CALM      30.48S
PARK RAPIDS    CLOUDY     7   0  73 N3        30.48S
ELBOW LAKE     CLOUDY     2  -1  85 NW5       30.55S WCI  -7
WADENA         CLOUDY     7   1  78 NW6       30.50S WCI  -3
DETROIT LAKES  LGT SNOW   7   5  92 W6        30.51S WCI  -3
MOORHEAD       MIX PCPN   7   1  78 NW7       30.57S WCI  -5
FERGUS FALLS   CLOUDY     3   0  85 W7        30.60S WCI  -9
MORRIS MN      CLOUDY     3   0  85 NW7       30.55R WCI  -9
STAPLES        CLOUDY     7   3  85 NW6       30.50S WCI  -3
$$
  *****  WEATHER ELSEWHERE ACROSS MINNESOTA  *****

CITY           SKY/WX    TMP DP  RH WIND       PRES   REMARKS
DULUTH         PTCLDY     8   3  80 NW8       30.44R WCI  -4
INTRNTL FALLS  LGT SNOW   5  -1  76 W7        30.47R WCI  -7
ELY            FLURRIES   9   5  85 W6        30.41R WCI  -1
CLOQUET        FLURRIES   9   3  78 W7        30.46R WCI  -3
WHEATON        CLOUDY     0  -6  78 W3        30.60R
BRAINERD       CLOUDY    10   5  80 NW5       30.50S WCI   2
HIBBING        CLOUDY     5   1  83 NW8       30.46R FOG     WCI  -8
ALEXANDRIA     CLOUDY     5   2  87 W8        30.51F WCI  -8
SAINT CLOUD    CLEAR      5   2  87 W5        30.54R WCI  -4
MINNEAPOLIS    CLOUDY    14   9  80 SW8       30.55R HAZE    WCI   3
$$

  *****  WEATHER ACROSS SOUTH DAKOTA  *****

CITY           SKY/WX    TMP DP  RH WIND       PRES   REMARKS
SIOUX FALLS    CLOUDY     1  -3  83 W6        30.56R WCI -10
BROOKINGS      CLOUDY    -3  -7  82 W5        30.53R WCI -13
WATERTOWN      CLOUDY    -4  -8  83 NW7       30.50R WCI -18
HURON          CLOUDY     0  -4  83 N3        30.59S
SISSETON         N/A     -4  -9  79 NW3       30.56S
ABERDEEN       CLOUDY    -6 -11  79 NW6       30.58S WCI -19
MITCHELL       CLOUDY     1  -3  83 CALM      30.60R
PIERRE         CLOUDY     2  -3  80 E8        30.50S WCI -12
MOBRIDGE       CLOUDY    -4 -10  75 NW9       30.51S WCI -20
RAPID CITY     LGT SNOW  -2  -7  79 N13       30.31S WCI -20
$$

  *****  SOME WEATHER IN NEARBY STATES *****

CITY           SKY/WX    TMP DP  RH WIND       PRES   REMARKS
GLASGOW MT     CLOUDY    -5  -9  83 E8        30.49S WCI -20
GREAT FALLS MT LGT SNOW  -3  -8  79 N5        30.28S WCI -13
CHEYENNE WY    CLOUDY    34  22  61 NW7G17    29.99F
SCOTTSBLUFF NE CLOUDY    17   8  67 E10       30.11R WCI   5
OMAHA NE       MOCLDY     9   3  77 CALM      30.62F
DES MOINES IA  MOCLDY    10   5  80 W6        30.61  WCI   0
DAVENPORT IA   CLOUDY    16  12  84 W10       30.57R WCI   4
CHICAGO IL     FLURRIES  23  17  78 W12       30.50R WCI  12
EAU CLAIRE WI  CLOUDY    13  10  88 SW6       30.52R WCI   4
LA CROSSE WI   MOCLDY    20  11  68 NW10      30.54R WCI   9
$$

  *****  SOME NATIONAL WEATHER *****

CITY           SKY/WX    TMP DP  RH WIND       PRES   REMARKS
LA GUARDIA NY  MOSUNNY   36  20  52 W16G26    30.10R
RALEIGH NC     NOT AVBL
ATLANTA GA     SUNNY     29  17  61 NW14      30.45R WCI  18
NEW ORLEANS LA CLOUDY    39  27  62 NE15G22   30.53R
OKLAHOMA CITY  CLOUDY    22  12  65 SE8       30.60F WCI  12
ALBUQUERQUE NM CLOUDY    27  19  72 CALM      30.38R
SALT LAKE CITY CLOUDY    37  31  78 SE10      30.19S
LOS ANGELES CA PTCLDY    53  49  86 E3        30.25R
BOISE ID       CLOUDY    26  23  88 CALM      30.14R
SEATTLE WA     LGT RAIN  33  30  88 E15G22    29.95S WCI  23
$$

*** WEATHER ACROSS MANITOBA...SASKATCHEWAN AND ONTARIO ***
                ***ONTARIO***

CITY           SKY/WX    TMP DP  RH WIND       PRES   REMARKS
GERALDTON      FLURRIES   7   3  85 W7        30.33S WCI  -5
THUNDER BAY    CLOUDY    14   5  67 N3        30.43S
SIOUX LOOKOUT  LGT SNOW   7   3  85 NW5       30.38S WCI  -2
TORONTO        FLURRIES  21  16  79 N9        30.22R WCI  11
BIG TROUT LK   FLURRIES  -2  -6  84 NW12      30.40S WCI -20
PICKLE LAKE    FLURRIES   1  -2  85 N3        30.36S
DRYDEN         FLURRIES   3   0  85 W5        30.39S WCI  -6
KENORA         FLURRIES   3   0  85 W7        30.44R WCI  -9
$$
                *** MANITOBA***

CITY           SKY/WX    TMP DP  RH WIND       PRES   REMARKS
BRANDON        FLURRIES -13 -18  77 NW10      30.54F WCI -32
DAUPHIN        FLURRIES  -4 -11  71 N8        30.60R WCI -19
ISLAND LAKE    NOT AVBL
PILOT MOUND      N/A    -17 -22  76 NW6         N/A  WCI -31
THE PAS        LGT SNOW  -8 -15  71 NW15      30.61S WCI -29
THOMPSON       FLURRIES -18 -24  76 VRB2      30.59S
WINNIPEG       FLURRIES   1  -6  71 W14       30.57S WCI -17
LYNN LAKE      FLURRIES -15 -18  84 N6        30.59F WCI -29
CHURCHILL      FLURRIES  -4  -8  84 NW21G32   30.52S WCI -28
GILLAM         FLURRIES -15 -20  76 NW8       30.54F WCI -32
$$
                ***SASKATCHEWAN***

CITY           SKY/WX    TMP DP  RH WIND       PRES   REMARKS
ESTEVAN        PTCLDY   -26 -31  75 NW7       30.54R WCI -44
KINDERSLEY     CLOUDY    -9 -15  77 CALM      30.51F
LLOYDMINSTER   CRYSTALS -17 -20  83 CALM      30.54S
PRINCE ALBERT  CRYSTALS -18 -26  69 W5        30.64R WCI -31
REGINA         PTCLDY   -17 -22  76 NW6       30.56S WCI -31
YORKTON        PTCLDY   -17 -20  83 W6        30.55S WCI -31
N. BATTLEFORD  CLEAR    -20 -27  69 NE6       30.62S WCI -36
LA RONGE       CLEAR    -24 -29  76 NW3       30.66S
SASKATOON      MOCLDY   -15 -20  76 NW5       30.63S WCI -27
SWIFT CURRENT  CLOUDY    -8 -11  84 N5        30.44F WCI -19
$$
NOTE: THESE ARE AUTOMATED STATIONS WITH LIMITED QUALITY CONTROL
      "FAIR" INDICATES FEW OR NO CLOUDS BELOW 12,000 FEET WITH NO
      SIGNIFICANT WEATHER AND/OR OBSTRUCTIONS TO VISIBILITY.
      SKY/WX - SKY CONDITION AND SIGNIFICANT WEATHER.
      TMP - AIR TEMPERATURE.    DP   - DEWPOINT TEMPERATURE.
      RH  - RELATIVE HUMIDITY.  PRES - PRESSURE.
      HX  - HEAT INDEX.         WCI  - WIND CHILL INDEX.
$



USA.gov is the U.S. government's official web portal to all federal, state and local government web resources and services.